Time,TemperatureF,DewpointF,PressureIn,WindDirection,WindDirectionDegrees,WindSpeedMPH,WindSpeedGustMPH,Humidity,HourlyPrecipIn,Conditions,Clouds,dailyrainin,SolarRadiationWatts/m^2,SoftwareType,DateUTC
2013-05-31 00:01:00,53.0,23.0,-100.00,NE,46,5.0,10.0,31,0.00,,,0.00,0.000000,,2013-05-31 06:01:00,
2013-05-31 00:12:00,53.0,23.0,-100.00,NE,46,5.0,10.0,31,0.00,,,0.00,0.000000,,2013-05-31 06:12:00,
2013-05-31 00:21:00,53.0,23.0,-100.00,NE,46,5.0,10.0,31,0.00,,,0.00,0.000000,,2013-05-31 06:21:00,
2013-05-31 00:31:00,53.0,23.0,-100.00,NE,46,5.0,10.0,31,0.00,,,0.00,0.000000,,2013-05-31 06:31:00,
2013-05-31 00:52:00,53.0,22.0,-100.00,North,8,11.0,15.0,29,0.00,,,0.00,0.000000,,2013-05-31 06:52:00,
2013-05-31 01:02:00,53.0,22.0,-100.00,North,8,11.0,15.0,29,0.00,,,0.00,0.000000,,2013-05-31 07:02:00,
2013-05-31 01:11:00,53.0,22.0,-100.00,North,8,11.0,15.0,29,0.00,,,0.00,0.000000,,2013-05-31 07:11:00,
2013-05-31 01:21:00,53.0,22.0,-100.00,North,8,11.0,15.0,29,0.00,,,0.00,0.000000,,2013-05-31 07:21:00,
2013-05-31 01:32:00,53.0,22.0,-100.00,North,8,11.0,15.0,29,0.00,,,0.00,0.000000,,2013-05-31 07:32:00,
2013-05-31 01:52:00,52.0,20.0,-100.00,North,9,7.0,13.0,28,0.00,,,0.00,0.000000,,2013-05-31 07:52:00,
2013-05-31 02:02:00,52.0,20.0,-100.00,North,9,7.0,13.0,28,0.00,,,0.00,0.000000,,2013-05-31 08:02:00,
2013-05-31 02:11:00,52.0,20.0,-100.00,North,9,7.0,13.0,28,0.00,,,0.00,0.000000,,2013-05-31 08:11:00,
2013-05-31 02:21:00,52.0,20.0,-100.00,North,9,7.0,13.0,28,0.00,,,0.00,0.000000,,2013-05-31 08:21:00,
2013-05-31 02:31:00,52.0,20.0,-100.00,North,9,7.0,13.0,28,0.00,,,0.00,0.000000,,2013-05-31 08:31:00,
2013-05-31 02:52:00,52.0,19.0,-100.00,North,10,5.0,8.0,27,0.00,,,0.00,0.000000,,2013-05-31 08:52:00,
2013-05-31 03:01:00,52.0,19.0,-100.00,North,10,5.0,8.0,27,0.00,,,0.00,0.000000,,2013-05-31 09:01:00,
2013-05-31 03:11:00,52.0,19.0,-100.00,North,10,5.0,8.0,27,0.00,,,0.00,0.000000,,2013-05-31 09:11:00,
2013-05-31 03:21:00,52.0,19.0,-100.00,North,10,5.0,8.0,27,0.00,,,0.00,0.000000,,2013-05-31 09:21:00,
2013-05-31 03:32:00,52.0,19.0,-100.00,North,10,5.0,8.0,27,0.00,,,0.00,0.000000,,2013-05-31 09:32:00,
2013-05-31 03:53:00,52.0,19.0,-100.00,NE,39,2.0,7.0,27,0.00,,,0.00,0.000000,,2013-05-31 09:53:00,
2013-05-31 04:02:00,52.0,19.0,-100.00,NE,39,2.0,7.0,27,0.00,,,0.00,0.000000,,2013-05-31 10:02:00,
2013-05-31 04:12:00,52.0,19.0,-100.00,NE,39,2.0,7.0,27,0.00,,,0.00,0.000000,,2013-05-31 10:12:00,
2013-05-31 04:22:00,52.0,19.0,-100.00,NE,39,2.0,7.0,27,0.00,,,0.00,0.000000,,2013-05-31 10:22:00,
2013-05-31 04:32:00,52.0,19.0,-100.00,NE,39,2.0,7.0,27,0.00,,,0.00,0.000000,,2013-05-31 10:32:00,
2013-05-31 04:52:00,51.0,18.0,-100.00,NW,311,2.0,5.0,27,0.00,,,0.00,0.000000,,2013-05-31 10:52:00,
2013-05-31 05:01:00,51.0,18.0,-100.00,NW,311,2.0,5.0,27,0.00,,,0.00,0.000000,,2013-05-31 11:01:00,
2013-05-31 05:11:00,51.0,18.0,-100.00,NW,311,2.0,5.0,27,0.00,,,0.00,0.000000,,2013-05-31 11:11:00,
2013-05-31 05:22:00,51.0,18.0,-100.00,NW,311,2.0,5.0,27,0.00,,,0.00,0.000000,,2013-05-31 11:22:00,
2013-05-31 05:32:00,51.0,18.0,-100.00,NW,311,2.0,5.0,27,0.00,,,0.00,0.000000,,2013-05-31 11:32:00,
2013-05-31 05:52:00,52.0,19.0,-100.00,West,274,9.0,16.0,27,0.00,,,0.00,0.000000,,2013-05-31 11:52:00,
2013-05-31 06:01:00,52.0,19.0,-100.00,West,274,9.0,16.0,27,0.00,,,0.00,0.000000,,2013-05-31 12:01:00,
2013-05-31 06:11:00,52.0,19.0,-100.00,West,274,9.0,16.0,27,0.00,,,0.00,0.000000,,2013-05-31 12:11:00,
2013-05-31 06:21:00,52.0,19.0,-100.00,West,274,9.0,16.0,27,0.00,,,0.00,0.000000,,2013-05-31 12:21:00,
2013-05-31 06:31:00,52.0,19.0,-100.00,West,274,9.0,16.0,27,0.00,,,0.00,0.000000,,2013-05-31 12:31:00,
2013-05-31 06:52:00,52.0,22.0,-100.00,WSW,241,4.0,13.0,31,0.00,,,0.00,44.000000,,2013-05-31 12:52:00,
2013-05-31 07:01:00,52.0,22.0,-100.00,WSW,241,4.0,13.0,31,0.00,,,0.00,44.000000,,2013-05-31 13:01:00,
2013-05-31 07:11:00,52.0,22.0,-100.00,WSW,241,4.0,13.0,31,0.00,,,0.00,44.000000,,2013-05-31 13:11:00,
2013-05-31 07:21:00,52.0,22.0,-100.00,WSW,241,4.0,13.0,31,0.00,,,0.00,44.000000,,2013-05-31 13:21:00,
2013-05-31 07:32:00,52.0,22.0,-100.00,WSW,241,4.0,13.0,31,0.00,,,0.00,44.000000,,2013-05-31 13:32:00,
2013-05-31 07:52:00,53.0,21.0,-100.00,WNW,302,12.0,21.0,28,0.00,,,0.00,217.000000,,2013-05-31 13:52:00,
2013-05-31 08:02:00,53.0,21.0,-100.00,WNW,302,12.0,21.0,28,0.00,,,0.00,217.000000,,2013-05-31 14:02:00,
2013-05-31 08:11:00,53.0,21.0,-100.00,WNW,302,12.0,21.0,28,0.00,,,0.00,217.000000,,2013-05-31 14:11:00,
2013-05-31 08:21:00,53.0,21.0,-100.00,WNW,302,12.0,21.0,28,0.00,,,0.00,217.000000,,2013-05-31 14:21:00,
2013-05-31 08:31:00,53.0,21.0,-100.00,WNW,302,12.0,21.0,28,0.00,,,0.00,217.000000,,2013-05-31 14:31:00,
2013-05-31 08:52:00,54.0,22.0,-100.00,West,280,13.0,25.0,29,0.00,,,0.00,436.000000,,2013-05-31 14:52:00,
2013-05-31 09:01:00,54.0,22.0,-100.00,West,280,13.0,25.0,29,0.00,,,0.00,436.000000,,2013-05-31 15:01:00,
2013-05-31 09:11:00,54.0,22.0,-100.00,West,280,13.0,25.0,29,0.00,,,0.00,436.000000,,2013-05-31 15:11:00,
2013-05-31 09:21:00,54.0,22.0,-100.00,West,280,13.0,25.0,29,0.00,,,0.00,436.000000,,2013-05-31 15:21:00,
2013-05-31 09:33:00,54.0,22.0,-100.00,West,280,13.0,25.0,29,0.00,,,0.00,436.000000,,2013-05-31 15:33:00,
2013-05-31 09:53:00,56.0,20.0,-100.00,West,263,12.0,29.0,24,0.00,,,-99.99,664.000000,,2013-05-31 15:53:00,
2013-05-31 10:03:00,56.0,20.0,-100.00,West,263,12.0,29.0,24,0.00,,,-99.99,664.000000,,2013-05-31 16:03:00,
2013-05-31 10:12:00,56.0,20.0,-100.00,West,263,12.0,29.0,24,0.00,,,-99.99,664.000000,,2013-05-31 16:12:00,
2013-05-31 10:22:00,56.0,20.0,-100.00,West,263,12.0,29.0,24,0.00,,,-99.99,664.000000,,2013-05-31 16:22:00,
2013-05-31 10:33:00,56.0,20.0,-100.00,West,263,12.0,29.0,24,0.00,,,-99.99,664.000000,,2013-05-31 16:33:00,
2013-05-31 10:52:00,57.0,19.0,-100.00,West,264,15.0,25.0,22,0.00,,,0.00,859.000000,,2013-05-31 16:52:00,
2013-05-31 11:02:00,57.0,19.0,-100.00,West,264,15.0,25.0,22,0.00,,,0.00,859.000000,,2013-05-31 17:02:00,
2013-05-31 11:12:00,57.0,19.0,-100.00,West,264,15.0,25.0,22,0.00,,,0.00,859.000000,,2013-05-31 17:12:00,
2013-05-31 11:22:00,57.0,19.0,-100.00,West,264,15.0,25.0,22,0.00,,,0.00,859.000000,,2013-05-31 17:22:00,
2013-05-31 11:31:00,57.0,19.0,-100.00,West,264,15.0,25.0,22,0.00,,,0.00,859.000000,,2013-05-31 17:31:00,
2013-05-31 11:52:00,60.0,18.0,-100.00,West,264,13.0,26.0,19,0.00,,,0.00,1013.000000,,2013-05-31 17:52:00,
2013-05-31 12:01:00,60.0,18.0,-100.00,West,264,13.0,26.0,19,0.00,,,0.00,1013.000000,,2013-05-31 18:01:00,
2013-05-31 12:11:00,60.0,18.0,-100.00,West,264,13.0,26.0,19,0.00,,,0.00,1013.000000,,2013-05-31 18:11:00,
2013-05-31 12:22:00,60.0,18.0,-100.00,West,264,13.0,26.0,19,0.00,,,0.00,1013.000000,,2013-05-31 18:22:00,
2013-05-31 12:31:00,60.0,18.0,-100.00,West,264,13.0,26.0,19,0.00,,,0.00,1013.000000,,2013-05-31 18:31:00,
2013-05-31 12:52:00,61.0,16.0,-100.00,West,265,15.0,27.0,17,0.00,,,0.00,1113.000000,,2013-05-31 18:52:00,
2013-05-31 13:01:00,61.0,16.0,-100.00,West,265,15.0,27.0,17,0.00,,,0.00,1113.000000,,2013-05-31 19:01:00,
2013-05-31 13:11:00,61.0,16.0,-100.00,West,265,15.0,27.0,17,0.00,,,0.00,1113.000000,,2013-05-31 19:11:00,
2013-05-31 13:22:00,61.0,16.0,-100.00,West,265,15.0,27.0,17,0.00,,,0.00,1113.000000,,2013-05-31 19:22:00,
2013-05-31 13:31:00,61.0,16.0,-100.00,West,265,15.0,27.0,17,0.00,,,0.00,1113.000000,,2013-05-31 19:31:00,
2013-05-31 13:52:00,62.0,11.0,-100.00,WSW,256,16.0,29.0,13,0.00,,,0.00,1143.000000,,2013-05-31 19:52:00,
2013-05-31 14:01:00,62.0,11.0,-100.00,WSW,256,16.0,29.0,13,0.00,,,0.00,1143.000000,,2013-05-31 20:01:00,
2013-05-31 14:11:00,62.0,11.0,-100.00,WSW,256,16.0,29.0,13,0.00,,,0.00,1143.000000,,2013-05-31 20:11:00,
2013-05-31 14:22:00,62.0,11.0,-100.00,WSW,256,16.0,29.0,13,0.00,,,0.00,1143.000000,,2013-05-31 20:22:00,
2013-05-31 14:31:00,62.0,11.0,-100.00,WSW,256,16.0,29.0,13,0.00,,,0.00,1143.000000,,2013-05-31 20:31:00,
2013-05-31 14:52:00,65.0,9.0,-100.00,West,260,13.0,33.0,11,0.00,,,0.00,1125.000000,,2013-05-31 20:52:00,
2013-05-31 15:01:00,65.0,9.0,-100.00,West,260,13.0,33.0,11,0.00,,,0.00,1125.000000,,2013-05-31 21:01:00,
2013-05-31 15:11:00,65.0,9.0,-100.00,West,260,13.0,33.0,11,0.00,,,0.00,1125.000000,,2013-05-31 21:11:00,
2013-05-31 15:22:00,65.0,9.0,-100.00,West,260,13.0,33.0,11,0.00,,,0.00,1125.000000,,2013-05-31 21:22:00,
2013-05-31 15:32:00,65.0,9.0,-100.00,West,260,13.0,33.0,11,0.00,,,0.00,1125.000000,,2013-05-31 21:32:00,
2013-05-31 15:54:00,66.0,3.0,-100.00,WNW,287,12.0,26.0,8,0.00,,,0.00,1059.000000,,2013-05-31 21:54:00,
2013-05-31 16:02:00,66.0,3.0,-100.00,WNW,287,12.0,26.0,8,0.00,,,0.00,1059.000000,,2013-05-31 22:02:00,
2013-05-31 16:53:00,67.0,4.0,-100.00,NW,320,15.0,27.0,8,0.00,,,0.00,905.000000,,2013-05-31 22:53:00,
2013-05-31 17:02:00,67.0,4.0,-100.00,NW,320,15.0,27.0,8,0.00,,,0.00,905.000000,,2013-05-31 23:02:00,
2013-05-31 17:21:00,67.0,4.0,-100.00,NW,320,15.0,27.0,8,0.00,,,0.00,905.000000,,2013-05-31 23:21:00,
2013-05-31 17:32:00,67.0,4.0,-100.00,NW,320,15.0,27.0,8,0.00,,,0.00,905.000000,,2013-05-31 23:32:00,
2013-05-31 17:52:00,67.0,4.0,-100.00,NNW,331,14.0,30.0,8,0.00,,,0.00,715.000000,,2013-05-31 23:52:00,
2013-05-31 18:01:00,67.0,4.0,-100.00,NNW,331,14.0,30.0,8,0.00,,,0.00,715.000000,,2013-06-01 00:01:00,
2013-05-31 18:11:00,67.0,4.0,-100.00,NNW,331,14.0,30.0,8,0.00,,,0.00,715.000000,,2013-06-01 00:11:00,
2013-05-31 18:22:00,67.0,4.0,-100.00,NNW,331,14.0,30.0,8,0.00,,,0.00,715.000000,,2013-06-01 00:22:00,
2013-05-31 18:31:00,67.0,4.0,-100.00,NNW,331,14.0,30.0,8,0.00,,,0.00,715.000000,,2013-06-01 00:31:00,
2013-05-31 18:52:00,66.0,3.0,-100.00,NW,323,12.0,24.0,8,0.00,,,0.00,501.000000,,2013-06-01 00:52:00,
2013-05-31 19:01:00,66.0,3.0,-100.00,NW,323,12.0,24.0,8,0.00,,,0.00,501.000000,,2013-06-01 01:01:00,
2013-05-31 19:11:00,66.0,3.0,-100.00,NW,323,12.0,24.0,8,0.00,,,0.00,501.000000,,2013-06-01 01:11:00,
2013-05-31 19:21:00,66.0,3.0,-100.00,NW,323,12.0,24.0,8,0.00,,,0.00,501.000000,,2013-06-01 01:21:00,
2013-05-31 19:31:00,66.0,3.0,-100.00,NW,323,12.0,24.0,8,0.00,,,0.00,501.000000,,2013-06-01 01:31:00,
2013-05-31 19:52:00,65.0,5.0,-100.00,West,275,9.0,16.0,9,0.00,,,0.00,269.000000,,2013-06-01 01:52:00,
2013-05-31 20:01:00,65.0,5.0,-100.00,West,275,9.0,16.0,9,0.00,,,0.00,269.000000,,2013-06-01 02:01:00,
2013-05-31 20:11:00,65.0,5.0,-100.00,West,275,9.0,16.0,9,0.00,,,0.00,269.000000,,2013-06-01 02:11:00,
2013-05-31 20:21:00,65.0,5.0,-100.00,West,275,9.0,16.0,9,0.00,,,0.00,269.000000,,2013-06-01 02:21:00,
2013-05-31 20:31:00,65.0,5.0,-100.00,West,275,9.0,16.0,9,0.00,,,0.00,269.000000,,2013-06-01 02:31:00,
2013-05-31 20:52:00,60.0,7.0,-100.00,NW,323,7.0,19.0,12,0.00,,,0.00,68.000000,,2013-06-01 02:52:00,
2013-05-31 21:01:00,60.0,7.0,-100.00,NW,323,7.0,19.0,12,0.00,,,0.00,68.000000,,2013-06-01 03:01:00,
2013-05-31 21:11:00,60.0,7.0,-100.00,NW,323,7.0,19.0,12,0.00,,,0.00,68.000000,,2013-06-01 03:11:00,
2013-05-31 21:21:00,60.0,7.0,-100.00,NW,323,7.0,19.0,12,0.00,,,0.00,68.000000,,2013-06-01 03:21:00,
2013-05-31 21:33:00,60.0,7.0,-100.00,NW,323,7.0,19.0,12,0.00,,,0.00,68.000000,,2013-06-01 03:33:00,
2013-05-31 21:53:00,56.0,9.0,-100.00,NNW,346,7.0,11.0,15,0.00,,,0.00,1.000000,,2013-06-01 03:53:00,
2013-05-31 22:02:00,56.0,9.0,-100.00,NNW,346,7.0,11.0,15,0.00,,,0.00,1.000000,,2013-06-01 04:02:00,
2013-05-31 22:12:00,56.0,9.0,-100.00,NNW,346,7.0,11.0,15,0.00,,,0.00,1.000000,,2013-06-01 04:12:00,
2013-05-31 22:23:00,56.0,9.0,-100.00,NNW,346,7.0,11.0,15,0.00,,,0.00,1.000000,,2013-06-01 04:23:00,
2013-05-31 22:33:00,56.0,9.0,-100.00,NNW,346,7.0,11.0,15,0.00,,,0.00,1.000000,,2013-06-01 04:33:00,
2013-05-31 22:53:00,55.0,14.0,-100.00,North,8,11.0,15.0,19,0.00,,,0.00,0.000000,,2013-06-01 04:53:00,
2013-05-31 23:02:00,55.0,14.0,-100.00,North,8,11.0,15.0,19,0.00,,,0.00,0.000000,,2013-06-01 05:02:00,
2013-05-31 23:12:00,55.0,14.0,-100.00,North,8,11.0,15.0,19,0.00,,,0.00,0.000000,,2013-06-01 05:12:00,
2013-05-31 23:22:00,55.0,14.0,-100.00,North,8,11.0,15.0,19,0.00,,,0.00,0.000000,,2013-06-01 05:22:00,
2013-05-31 23:32:00,55.0,14.0,-100.00,North,8,11.0,15.0,19,0.00,,,0.00,0.000000,,2013-06-01 05:32:00,
2013-05-31 23:52:00,54.0,14.0,-100.00,North,11,15.0,20.0,20,0.00,,,0.00,0.000000,,2013-06-01 05:52:00,